Year,Month,Day,Hour,Minute,Value (Times are PST for temperature in C)
2010,06,16,00,00,11.70
2010,06,16,00,01,11.70
2010,06,16,00,02,11.70
2010,06,16,00,03,11.70
2010,06,16,00,04,11.70
2010,06,16,00,05,11.70
2010,06,16,00,06,11.70
2010,06,16,00,07,11.70
2010,06,16,00,08,11.70
2010,06,16,00,09,11.70
2010,06,16,00,10,11.70
2010,06,16,00,11,11.70
2010,06,16,00,12,11.70
2010,06,16,00,13,11.70
2010,06,16,00,14,11.70
2010,06,16,00,15,11.70
2010,06,16,00,16,11.70
2010,06,16,00,17,11.70
2010,06,16,00,18,11.70
2010,06,16,00,19,11.70
2010,06,16,00,20,11.70
2010,06,16,00,21,11.70
2010,06,16,00,22,11.70
2010,06,16,00,23,11.70
2010,06,16,00,24,11.70
2010,06,16,00,25,11.70
2010,06,16,00,26,11.70
2010,06,16,00,27,11.70
2010,06,16,00,28,11.60
2010,06,16,00,29,11.60
2010,06,16,00,30,11.60
2010,06,16,00,31,11.60
2010,06,16,00,32,11.60
2010,06,16,00,33,11.60
2010,06,16,00,34,11.60
2010,06,16,00,35,11.70
2010,06,16,00,36,11.70
2010,06,16,00,37,11.70
2010,06,16,00,38,11.70
2010,06,16,00,39,11.70
2010,06,16,00,40,11.70
2010,06,16,00,41,11.70
2010,06,16,00,42,11.70
2010,06,16,00,43,11.70
2010,06,16,00,44,11.70
2010,06,16,00,45,11.70
2010,06,16,00,46,11.70
2010,06,16,00,47,11.60
2010,06,16,00,48,11.60
2010,06,16,00,49,11.60
2010,06,16,00,50,11.60
2010,06,16,00,51,11.60
2010,06,16,00,52,11.60
2010,06,16,00,53,11.60
2010,06,16,00,54,11.60
2010,06,16,00,55,11.60
2010,06,16,00,56,11.60
2010,06,16,00,57,11.60
2010,06,16,00,58,11.60
2010,06,16,00,59,11.60
2010,06,16,01,00,11.60
2010,06,16,01,01,11.60
2010,06,16,01,02,11.60
2010,06,16,01,03,11.60
2010,06,16,01,04,11.60
2010,06,16,01,05,11.60
2010,06,16,01,06,11.60
2010,06,16,01,07,11.60
2010,06,16,01,08,11.60
2010,06,16,01,09,11.60
2010,06,16,01,10,11.50
2010,06,16,01,11,11.40
2010,06,16,01,12,11.40
2010,06,16,01,13,11.40
2010,06,16,01,14,11.40
2010,06,16,01,15,11.40
2010,06,16,01,16,11.40
2010,06,16,01,17,11.40
2010,06,16,01,18,11.40
2010,06,16,01,19,11.40
2010,06,16,01,20,11.40
2010,06,16,01,21,11.40
2010,06,16,01,22,11.40
2010,06,16,01,23,11.40
2010,06,16,01,24,11.40
2010,06,16,01,25,11.40
2010,06,16,01,26,11.40
2010,06,16,01,27,11.30
2010,06,16,01,28,11.30
2010,06,16,01,29,11.30
2010,06,16,01,30,11.30
2010,06,16,01,31,11.30
2010,06,16,01,32,11.30
2010,06,16,01,33,11.30
2010,06,16,01,34,11.30
2010,06,16,01,35,11.30
2010,06,16,01,36,11.20
2010,06,16,01,37,11.20
2010,06,16,01,38,11.20
2010,06,16,01,39,11.20
2010,06,16,01,40,11.20
2010,06,16,01,41,11.20
2010,06,16,01,42,11.20
2010,06,16,01,43,11.20
2010,06,16,01,44,11.20
2010,06,16,01,45,11.20
2010,06,16,01,46,11.10
2010,06,16,01,47,11.10
2010,06,16,01,48,11.10
2010,06,16,01,49,11.10
2010,06,16,01,50,11.10
2010,06,16,01,51,11.10
2010,06,16,01,52,11.10
2010,06,16,01,53,11.10
2010,06,16,01,54,11.10
2010,06,16,01,55,11.10
2010,06,16,01,56,11.10
2010,06,16,01,57,11.10
2010,06,16,01,59,11.10
2010,06,16,02,00,11.10
2010,06,16,02,01,11.10
2010,06,16,02,02,11.10
2010,06,16,02,03,11.00
2010,06,16,02,04,10.90
2010,06,16,02,05,10.90
2010,06,16,02,06,10.90
2010,06,16,02,07,10.90
2010,06,16,02,08,10.90
2010,06,16,02,09,10.90
2010,06,16,02,10,10.90
2010,06,16,02,11,10.90
2010,06,16,02,12,10.90
2010,06,16,02,13,10.90
2010,06,16,02,14,10.90
2010,06,16,02,15,10.90
2010,06,16,02,16,10.90
2010,06,16,02,17,10.90
2010,06,16,02,18,10.90
2010,06,16,02,19,10.90
2010,06,16,02,20,10.90
2010,06,16,02,21,10.90
2010,06,16,02,22,10.90
2010,06,16,02,23,10.90
2010,06,16,02,24,10.90
2010,06,16,02,25,10.90
2010,06,16,02,26,10.90
2010,06,16,02,27,10.80
2010,06,16,02,28,10.80
2010,06,16,02,29,10.80
2010,06,16,02,30,10.80
2010,06,16,02,31,10.80
2010,06,16,02,32,10.80
2010,06,16,02,33,10.80
2010,06,16,02,34,10.80
2010,06,16,02,35,10.70
2010,06,16,02,36,10.70
2010,06,16,02,37,10.70
2010,06,16,02,38,10.70
2010,06,16,02,39,10.70
2010,06,16,02,40,10.70
2010,06,16,02,41,10.70
2010,06,16,02,42,10.70
2010,06,16,02,43,10.70
2010,06,16,02,44,10.70
2010,06,16,02,45,10.70
2010,06,16,02,46,10.70
2010,06,16,02,47,10.70
2010,06,16,02,48,10.70
2010,06,16,02,49,10.70
2010,06,16,02,50,10.70
2010,06,16,02,51,10.70
2010,06,16,02,52,10.70
2010,06,16,02,53,10.70
2010,06,16,02,54,10.70
2010,06,16,02,55,10.70
2010,06,16,02,56,10.70
2010,06,16,02,57,10.70
2010,06,16,02,58,10.70
2010,06,16,02,59,10.70
2010,06,16,03,00,10.70
2010,06,16,03,01,10.70
2010,06,16,03,02,10.70
2010,06,16,03,03,10.70
2010,06,16,03,04,10.70
2010,06,16,03,05,10.70
2010,06,16,03,06,10.70
2010,06,16,03,07,10.70
2010,06,16,03,08,10.60
2010,06,16,03,09,10.60
2010,06,16,03,10,10.60
2010,06,16,03,11,10.60
2010,06,16,03,12,10.60
2010,06,16,03,13,10.60
2010,06,16,03,14,10.60
2010,06,16,03,15,10.60
2010,06,16,03,16,10.60
2010,06,16,03,17,10.50
2010,06,16,03,18,10.40
2010,06,16,03,19,10.40
2010,06,16,03,20,10.40
2010,06,16,03,21,10.40
2010,06,16,03,22,10.40
2010,06,16,03,23,10.40
2010,06,16,03,24,10.40
2010,06,16,03,25,10.40
2010,06,16,03,26,10.40
2010,06,16,03,27,10.40
2010,06,16,03,28,10.40
2010,06,16,03,29,10.40
2010,06,16,03,30,10.40
2010,06,16,03,31,10.40
2010,06,16,03,32,10.40
2010,06,16,03,33,10.40
2010,06,16,03,34,10.40
2010,06,16,03,35,10.40
2010,06,16,03,36,10.40
2010,06,16,03,37,10.40
2010,06,16,03,38,10.30
2010,06,16,03,39,10.30
2010,06,16,03,40,10.30
2010,06,16,03,41,10.30
2010,06,16,03,42,10.30
2010,06,16,03,43,10.30
2010,06,16,03,44,10.30
2010,06,16,03,45,10.30
2010,06,16,03,46,10.30
2010,06,16,03,47,10.30
2010,06,16,03,48,10.30
2010,06,16,03,49,10.30
2010,06,16,03,50,10.30
2010,06,16,03,51,10.30
2010,06,16,03,52,10.30
2010,06,16,03,53,10.30
2010,06,16,03,54,10.30
2010,06,16,03,55,10.30
2010,06,16,03,56,10.20
2010,06,16,03,57,10.20
2010,06,16,03,58,10.20
2010,06,16,03,59,10.20
2010,06,16,04,00,10.20
2010,06,16,04,01,10.20
2010,06,16,04,02,10.20
2010,06,16,04,03,10.20
2010,06,16,04,05,10.20
2010,06,16,04,07,10.20
2010,06,16,04,08,10.20
2010,06,16,04,09,10.20
2010,06,16,04,10,10.20
2010,06,16,04,11,10.20
2010,06,16,04,12,10.20
2010,06,16,04,13,10.30
2010,06,16,04,14,10.30
2010,06,16,04,15,10.30
2010,06,16,04,16,10.30
2010,06,16,04,17,10.30
2010,06,16,04,18,10.30
2010,06,16,04,19,10.30
2010,06,16,04,20,10.30
2010,06,16,04,21,10.30
2010,06,16,04,22,10.30
2010,06,16,04,23,10.30
2010,06,16,04,24,10.40
2010,06,16,04,25,10.40
2010,06,16,04,26,10.40
2010,06,16,04,27,10.40
2010,06,16,04,28,10.30
2010,06,16,04,29,10.30
2010,06,16,04,30,10.30
2010,06,16,04,31,10.30
2010,06,16,04,32,10.30
2010,06,16,04,33,10.30
2010,06,16,04,34,10.30
2010,06,16,04,35,10.30
2010,06,16,04,36,10.30
2010,06,16,04,37,10.30
2010,06,16,04,38,10.30
2010,06,16,04,39,10.20
2010,06,16,04,40,10.20
2010,06,16,04,41,10.20
2010,06,16,04,42,10.20
2010,06,16,04,43,10.20
2010,06,16,04,44,10.20
2010,06,16,04,45,10.10
2010,06,16,04,46,10.10
2010,06,16,04,47,10.10
2010,06,16,04,48,10.10
2010,06,16,04,49,10.10
2010,06,16,04,50,10.10
2010,06,16,04,51,10.10
2010,06,16,04,52,10.00
2010,06,16,04,53,9.90
2010,06,16,04,54,9.90
2010,06,16,04,55,9.90
2010,06,16,04,56,9.90
2010,06,16,04,57,9.90
2010,06,16,04,58,9.90
2010,06,16,04,59,9.90
2010,06,16,05,00,9.90
2010,06,16,05,01,9.80
2010,06,16,05,02,9.90
2010,06,16,05,03,9.80
2010,06,16,05,04,9.80
2010,06,16,05,05,9.80
2010,06,16,05,06,9.80
2010,06,16,05,07,9.70
2010,06,16,05,08,9.70
2010,06,16,05,09,9.70
2010,06,16,05,10,9.70
2010,06,16,05,11,9.70
2010,06,16,05,12,9.70
2010,06,16,05,13,9.70
2010,06,16,05,14,9.70
2010,06,16,05,15,9.70
2010,06,16,05,16,9.70
2010,06,16,05,17,9.70
2010,06,16,05,18,9.70
2010,06,16,05,19,9.70
2010,06,16,05,20,9.70
2010,06,16,05,21,9.70
2010,06,16,05,22,9.70
2010,06,16,05,23,9.70
2010,06,16,05,24,9.70
2010,06,16,05,25,9.70
2010,06,16,05,26,9.70
2010,06,16,05,27,9.70
2010,06,16,05,28,9.70
2010,06,16,05,29,9.70
2010,06,16,05,30,9.70
2010,06,16,05,31,9.70
2010,06,16,05,32,9.70
2010,06,16,05,33,9.70
2010,06,16,05,34,9.70
2010,06,16,05,35,9.70
2010,06,16,05,36,9.70
2010,06,16,05,37,9.70
2010,06,16,05,38,9.70
2010,06,16,05,39,9.70
2010,06,16,05,40,9.70
2010,06,16,05,41,9.70
2010,06,16,05,42,9.70
2010,06,16,05,43,9.70
2010,06,16,05,44,9.70
2010,06,16,05,45,9.70
2010,06,16,05,46,9.80
2010,06,16,05,47,9.80
2010,06,16,05,48,9.80
2010,06,16,05,49,9.80
2010,06,16,05,50,9.90
2010,06,16,05,51,9.90
2010,06,16,05,52,9.90
2010,06,16,05,53,9.90
2010,06,16,05,54,9.90
2010,06,16,05,55,9.90
2010,06,16,05,56,9.90
2010,06,16,05,57,9.90
2010,06,16,05,58,10.00
2010,06,16,05,59,10.10
2010,06,16,06,00,10.10
2010,06,16,06,01,10.10
2010,06,16,06,02,10.10
2010,06,16,06,03,10.20
2010,06,16,06,04,10.20
2010,06,16,06,05,10.30
2010,06,16,06,06,10.40
2010,06,16,06,07,10.40
2010,06,16,06,08,10.40
2010,06,16,06,09,10.50
2010,06,16,06,10,10.60
2010,06,16,06,11,10.60
2010,06,16,06,12,10.70
2010,06,16,06,13,10.70
2010,06,16,06,14,10.80
2010,06,16,06,15,10.80
2010,06,16,06,16,10.90
2010,06,16,06,17,10.90
2010,06,16,06,18,10.90
2010,06,16,06,19,10.90
2010,06,16,06,20,10.90
2010,06,16,06,21,11.00
2010,06,16,06,22,11.10
2010,06,16,06,23,11.10
2010,06,16,06,24,11.10
2010,06,16,06,25,11.10
2010,06,16,06,26,11.10
2010,06,16,06,27,11.10
2010,06,16,06,28,11.10
2010,06,16,06,29,11.10
2010,06,16,06,30,11.10
2010,06,16,06,31,11.10
2010,06,16,06,32,11.20
2010,06,16,06,33,11.20
2010,06,16,06,34,11.20
2010,06,16,06,35,11.20
2010,06,16,06,36,11.20
2010,06,16,06,37,11.20
2010,06,16,06,38,11.30
2010,06,16,06,39,11.30
2010,06,16,06,40,11.30
2010,06,16,06,41,11.30
2010,06,16,06,42,11.30
2010,06,16,06,43,11.20
2010,06,16,06,44,11.20
2010,06,16,06,45,11.10
2010,06,16,06,46,11.10
2010,06,16,06,47,11.10
2010,06,16,06,48,11.10
2010,06,16,06,49,11.10
2010,06,16,06,50,11.10
2010,06,16,06,51,11.10
2010,06,16,06,52,11.10
2010,06,16,06,53,11.10
2010,06,16,06,54,11.10
2010,06,16,06,55,11.10
2010,06,16,06,56,11.10
2010,06,16,06,57,11.10
2010,06,16,06,58,11.20
2010,06,16,06,59,11.10
2010,06,16,07,00,11.20
2010,06,16,07,01,11.20
2010,06,16,07,02,11.20
2010,06,16,07,03,11.20
2010,06,16,07,04,11.30
2010,06,16,07,05,11.30
2010,06,16,07,06,11.30
2010,06,16,07,07,11.40
2010,06,16,07,08,11.40
2010,06,16,07,09,11.40
2010,06,16,07,10,11.50
2010,06,16,07,11,11.60
2010,06,16,07,12,11.60
2010,06,16,07,13,11.60
2010,06,16,07,14,11.60
2010,06,16,07,15,11.70
2010,06,16,07,16,11.70
2010,06,16,07,17,11.80
2010,06,16,07,18,11.80
2010,06,16,07,19,11.80
2010,06,16,07,20,11.80
2010,06,16,07,21,11.80
2010,06,16,07,22,11.70
2010,06,16,07,23,11.60
2010,06,16,07,24,11.60
2010,06,16,07,25,11.60
2010,06,16,07,26,11.60
2010,06,16,07,27,11.60
2010,06,16,07,28,11.50
2010,06,16,07,29,11.40
2010,06,16,07,30,11.40
2010,06,16,07,31,11.40
2010,06,16,07,32,11.40
2010,06,16,07,33,11.40
2010,06,16,07,34,11.30
2010,06,16,07,35,11.30
2010,06,16,07,36,11.30
2010,06,16,07,37,11.30
2010,06,16,07,38,11.30
2010,06,16,07,39,11.30
2010,06,16,07,40,11.30
2010,06,16,07,41,11.30
2010,06,16,07,42,11.20
2010,06,16,07,43,11.20
2010,06,16,07,44,11.20
2010,06,16,07,45,11.20
2010,06,16,07,46,11.20
2010,06,16,07,47,11.20
2010,06,16,07,48,11.20
2010,06,16,07,49,11.30
2010,06,16,07,50,11.30
2010,06,16,07,51,11.20
2010,06,16,07,52,11.20
2010,06,16,07,53,11.20
2010,06,16,07,54,11.10
2010,06,16,07,55,11.10
2010,06,16,07,56,11.20
2010,06,16,07,57,11.30
2010,06,16,07,58,11.30
2010,06,16,07,59,11.30
2010,06,16,08,00,11.40
2010,06,16,08,01,11.50
2010,06,16,08,02,11.60
2010,06,16,08,03,11.70
2010,06,16,08,04,11.80
2010,06,16,08,05,11.80
2010,06,16,08,06,11.80
2010,06,16,08,07,11.80
2010,06,16,08,08,11.80
2010,06,16,08,09,11.80
2010,06,16,08,10,11.80
2010,06,16,08,11,11.80
2010,06,16,08,12,11.80
2010,06,16,08,13,11.80
2010,06,16,08,14,11.80
2010,06,16,08,15,11.80
2010,06,16,08,16,11.80
2010,06,16,08,17,11.80
2010,06,16,08,18,11.80
2010,06,16,08,19,11.80
2010,06,16,08,20,11.80
2010,06,16,08,21,11.80
2010,06,16,08,22,11.90
2010,06,16,08,23,12.00
2010,06,16,08,24,12.10
2010,06,16,08,25,12.10
2010,06,16,08,26,12.10
2010,06,16,08,27,12.20
2010,06,16,08,28,12.20
2010,06,16,08,29,12.30
2010,06,16,08,30,12.30
2010,06,16,08,31,12.30
2010,06,16,08,32,12.30
2010,06,16,08,33,12.30
2010,06,16,08,34,12.30
2010,06,16,08,35,12.30
2010,06,16,08,36,12.30
2010,06,16,08,37,12.30
2010,06,16,08,38,12.30
2010,06,16,08,39,12.30
2010,06,16,08,40,12.30
2010,06,16,08,41,12.40
2010,06,16,08,42,12.40
2010,06,16,08,43,12.40
2010,06,16,08,44,12.40
2010,06,16,08,45,12.40
2010,06,16,08,46,12.50
2010,06,16,08,47,12.50
2010,06,16,08,48,12.50
2010,06,16,08,49,12.50
2010,06,16,08,50,12.40
2010,06,16,08,51,12.50
2010,06,16,08,52,12.50
2010,06,16,08,53,12.60
2010,06,16,08,54,12.70
2010,06,16,08,55,12.70
2010,06,16,08,56,12.70
2010,06,16,08,57,12.70
2010,06,16,08,58,12.70
2010,06,16,08,59,12.70
2010,06,16,09,00,12.70
2010,06,16,09,01,12.70
2010,06,16,09,02,12.70
2010,06,16,09,03,12.70
2010,06,16,09,04,12.80
2010,06,16,09,05,12.80
2010,06,16,09,06,12.90
2010,06,16,09,07,12.90
2010,06,16,09,08,12.90
2010,06,16,09,09,12.90
2010,06,16,09,10,13.00
2010,06,16,09,11,13.10
2010,06,16,09,12,13.10
2010,06,16,09,14,13.10
2010,06,16,09,15,13.10
2010,06,16,09,16,13.00
2010,06,16,09,17,12.90
2010,06,16,09,18,12.90
2010,06,16,09,19,12.90
2010,06,16,09,20,12.90
2010,06,16,09,21,13.00
2010,06,16,09,22,13.00
2010,06,16,09,23,13.00
2010,06,16,09,24,13.10
2010,06,16,09,25,13.10
2010,06,16,09,26,13.10
2010,06,16,09,27,13.00
2010,06,16,09,28,13.00
2010,06,16,09,29,13.00
2010,06,16,09,30,12.90
2010,06,16,09,31,12.90
2010,06,16,09,32,13.00
2010,06,16,09,33,13.00
2010,06,16,09,34,13.10
2010,06,16,09,35,13.10
2010,06,16,09,36,13.10
2010,06,16,09,37,13.20
2010,06,16,09,38,13.20
2010,06,16,09,39,13.10
2010,06,16,09,40,13.10
2010,06,16,09,41,13.10
2010,06,16,09,42,13.10
2010,06,16,09,43,13.10
2010,06,16,09,44,13.10
2010,06,16,09,45,13.00
2010,06,16,09,46,13.00
2010,06,16,09,47,13.00
2010,06,16,09,48,12.90
2010,06,16,09,49,12.90
2010,06,16,09,50,12.90
2010,06,16,09,51,12.90
2010,06,16,09,52,13.00
2010,06,16,09,53,13.00
2010,06,16,09,54,13.00
2010,06,16,09,55,13.00
2010,06,16,09,56,13.00
2010,06,16,09,57,13.10
2010,06,16,09,58,13.10
2010,06,16,09,59,13.20
2010,06,16,10,00,13.20
2010,06,16,10,01,13.20
2010,06,16,10,02,13.20
2010,06,16,10,03,13.20
2010,06,16,10,04,13.10
2010,06,16,10,05,13.10
2010,06,16,10,06,13.10
2010,06,16,10,07,13.10
2010,06,16,10,08,13.20
2010,06,16,10,09,13.30
2010,06,16,10,10,13.20
2010,06,16,10,11,13.10
2010,06,16,10,12,13.10
2010,06,16,10,13,13.10
2010,06,16,10,14,13.10
2010,06,16,10,15,13.00
2010,06,16,10,16,13.00
2010,06,16,10,17,13.00
2010,06,16,10,18,12.90
2010,06,16,10,19,12.90
2010,06,16,10,20,12.90
2010,06,16,10,21,12.90
2010,06,16,10,22,12.90
2010,06,16,10,23,12.90
2010,06,16,10,24,13.00
2010,06,16,10,25,13.00
2010,06,16,10,26,12.90
2010,06,16,10,27,12.90
2010,06,16,10,28,13.00
2010,06,16,10,29,13.00
2010,06,16,10,30,13.00
2010,06,16,10,31,13.00
2010,06,16,10,32,13.00
2010,06,16,10,33,13.00
2010,06,16,10,34,13.00
2010,06,16,10,35,13.00
2010,06,16,10,36,13.00
2010,06,16,10,37,13.00
2010,06,16,10,38,13.00
2010,06,16,10,39,13.00
2010,06,16,10,40,13.00
2010,06,16,10,41,13.10
2010,06,16,10,42,13.30
2010,06,16,10,43,13.40
2010,06,16,10,44,13.50
2010,06,16,10,45,13.60
2010,06,16,10,46,13.60
2010,06,16,10,47,13.70
2010,06,16,10,48,13.80
2010,06,16,10,49,13.80
2010,06,16,10,50,13.80
2010,06,16,10,51,13.80
2010,06,16,10,52,13.70
2010,06,16,10,53,13.70
2010,06,16,10,54,13.70
2010,06,16,10,55,13.70
2010,06,16,10,56,13.70
2010,06,16,10,57,13.80
2010,06,16,10,58,13.70
2010,06,16,10,59,13.70
2010,06,16,11,00,13.60
2010,06,16,11,01,13.60
2010,06,16,11,02,13.60
2010,06,16,11,03,13.60
2010,06,16,11,04,13.60
2010,06,16,11,05,13.50
2010,06,16,11,06,13.50
2010,06,16,11,07,13.60
2010,06,16,11,08,13.60
2010,06,16,11,09,13.60
2010,06,16,11,10,13.60
2010,06,16,11,11,13.60
2010,06,16,11,12,13.50
2010,06,16,11,13,13.40
2010,06,16,11,14,13.40
2010,06,16,11,15,13.40
2010,06,16,11,16,13.40
2010,06,16,11,17,13.40
2010,06,16,11,18,13.50
2010,06,16,11,19,13.50
2010,06,16,11,20,13.50
2010,06,16,11,21,13.30
2010,06,16,11,22,13.30
2010,06,16,11,23,13.20
2010,06,16,11,24,13.10
2010,06,16,11,25,13.10
2010,06,16,11,26,13.10
2010,06,16,11,27,13.00
2010,06,16,11,28,12.90
2010,06,16,11,29,13.00
2010,06,16,11,30,13.00
2010,06,16,11,31,13.10
2010,06,16,11,32,13.00
2010,06,16,11,33,13.10
2010,06,16,11,34,13.20
2010,06,16,11,35,13.30
2010,06,16,11,36,13.50
2010,06,16,11,37,13.60
2010,06,16,11,38,13.70
2010,06,16,11,39,13.60
2010,06,16,11,40,13.40
2010,06,16,11,41,13.20
2010,06,16,11,42,13.10
2010,06,16,11,43,13.20
2010,06,16,11,44,13.30
2010,06,16,11,45,13.30
2010,06,16,11,46,13.20
2010,06,16,11,47,13.20
2010,06,16,11,48,13.30
2010,06,16,11,49,13.30
2010,06,16,11,50,13.40
2010,06,16,11,51,13.30
2010,06,16,11,52,13.30
2010,06,16,11,53,13.30
2010,06,16,11,54,13.30
2010,06,16,11,55,13.40
2010,06,16,11,56,13.40
2010,06,16,11,57,13.40
2010,06,16,11,58,13.40
2010,06,16,11,59,13.20
2010,06,16,12,00,13.10
2010,06,16,12,01,13.00
2010,06,16,12,02,12.90
2010,06,16,12,03,12.90
2010,06,16,12,04,12.90
2010,06,16,12,05,12.90
2010,06,16,12,06,12.80
2010,06,16,12,07,12.80
2010,06,16,12,08,12.80
2010,06,16,12,09,12.80
2010,06,16,12,10,12.80
2010,06,16,12,11,12.80
2010,06,16,12,12,12.80
2010,06,16,12,13,12.90
2010,06,16,12,14,13.00
2010,06,16,12,15,13.10
2010,06,16,12,16,13.10
2010,06,16,12,17,13.10
2010,06,16,12,18,13.10
2010,06,16,12,19,13.20
2010,06,16,12,20,13.30
2010,06,16,12,21,13.30
2010,06,16,12,22,13.30
2010,06,16,12,23,13.40
2010,06,16,12,24,13.50
2010,06,16,12,25,13.60
2010,06,16,12,26,13.60
2010,06,16,12,27,13.50
2010,06,16,12,28,13.50
2010,06,16,12,29,13.50
2010,06,16,12,30,13.40
2010,06,16,12,31,13.40
2010,06,16,12,32,13.30
2010,06,16,12,33,13.40
2010,06,16,12,34,13.40
2010,06,16,12,35,13.50
2010,06,16,12,36,13.60
2010,06,16,12,37,13.70
2010,06,16,12,38,13.70
2010,06,16,12,39,13.70
2010,06,16,12,40,13.60
2010,06,16,12,41,13.60
2010,06,16,12,42,13.50
2010,06,16,12,43,13.50
2010,06,16,12,44,13.40
2010,06,16,12,45,13.40
2010,06,16,12,46,13.40
2010,06,16,12,47,13.40
2010,06,16,12,48,13.50
2010,06,16,12,49,13.50
2010,06,16,12,50,13.60
2010,06,16,12,51,13.70
2010,06,16,12,52,13.80
2010,06,16,12,53,14.00
2010,06,16,12,54,14.20
2010,06,16,12,55,14.20
2010,06,16,12,56,14.10
2010,06,16,12,57,13.90
2010,06,16,12,58,14.00
2010,06,16,12,59,14.20
2010,06,16,13,00,14.20
2010,06,16,13,01,14.20
2010,06,16,13,02,14.30
2010,06,16,13,03,14.30
2010,06,16,13,04,14.30
2010,06,16,13,05,14.20
2010,06,16,13,06,14.20
2010,06,16,13,07,14.10
2010,06,16,13,08,14.00
2010,06,16,13,09,13.90
2010,06,16,13,10,13.90
2010,06,16,13,11,13.80
2010,06,16,13,12,13.70
2010,06,16,13,13,13.70
2010,06,16,13,14,13.70
2010,06,16,13,15,13.60
2010,06,16,13,16,13.60
2010,06,16,13,17,13.50
2010,06,16,13,18,13.40
2010,06,16,13,19,13.40
2010,06,16,13,20,13.30
2010,06,16,13,21,13.40
2010,06,16,13,22,13.30
2010,06,16,13,23,13.40
2010,06,16,13,24,13.40
2010,06,16,13,25,13.40
2010,06,16,13,26,13.30
2010,06,16,13,27,13.30
2010,06,16,13,28,13.30
2010,06,16,13,29,13.20
2010,06,16,13,30,13.20
2010,06,16,13,31,13.20
2010,06,16,13,32,13.30
2010,06,16,13,33,13.30
2010,06,16,13,34,13.40
2010,06,16,13,35,13.50
2010,06,16,13,36,13.50
2010,06,16,13,37,13.60
2010,06,16,13,38,13.70
2010,06,16,13,39,13.70
2010,06,16,13,40,13.70
2010,06,16,13,41,13.50
2010,06,16,13,42,13.50
2010,06,16,13,43,13.40
2010,06,16,13,44,13.30
2010,06,16,13,45,13.30
2010,06,16,13,46,13.10
2010,06,16,13,47,13.10
2010,06,16,13,48,13.30
2010,06,16,13,49,13.30
2010,06,16,13,50,13.30
2010,06,16,13,51,13.30
2010,06,16,13,52,13.40
2010,06,16,13,53,13.40
2010,06,16,13,54,13.50
2010,06,16,13,55,13.50
2010,06,16,13,56,13.60
2010,06,16,13,57,13.60
2010,06,16,13,58,13.60
2010,06,16,13,59,13.60
2010,06,16,14,00,13.50
2010,06,16,14,01,13.40
2010,06,16,14,02,13.20
2010,06,16,14,03,13.10
2010,06,16,14,04,13.10
2010,06,16,14,05,13.10
2010,06,16,14,06,13.10
2010,06,16,14,07,13.20
2010,06,16,14,08,13.10
2010,06,16,14,09,13.00
2010,06,16,14,10,13.20
2010,06,16,14,11,13.40
2010,06,16,14,12,13.40
2010,06,16,14,13,13.40
2010,06,16,14,14,13.40
2010,06,16,14,15,13.30
2010,06,16,14,16,13.40
2010,06,16,14,17,13.50
2010,06,16,14,18,13.50
2010,06,16,14,19,13.50
2010,06,16,14,20,13.60
2010,06,16,14,21,13.60
2010,06,16,14,22,13.60
2010,06,16,14,23,13.70
2010,06,16,14,24,13.60
2010,06,16,14,25,13.50
2010,06,16,14,26,13.50
2010,06,16,14,27,13.30
2010,06,16,14,28,13.40
2010,06,16,14,29,13.40
2010,06,16,14,30,13.40
2010,06,16,14,31,13.40
2010,06,16,14,32,13.60
2010,06,16,14,33,13.70
2010,06,16,14,34,13.70
2010,06,16,14,35,13.60
2010,06,16,14,36,13.70
2010,06,16,14,37,13.80
2010,06,16,14,38,13.70
2010,06,16,14,39,13.60
2010,06,16,14,40,13.40
2010,06,16,14,41,13.40
2010,06,16,14,42,13.40
2010,06,16,14,43,13.50
2010,06,16,14,44,13.60
2010,06,16,14,45,13.60
2010,06,16,14,46,13.70
2010,06,16,14,47,13.80
2010,06,16,14,48,13.90
2010,06,16,14,49,14.00
2010,06,16,14,50,14.00
2010,06,16,14,51,13.90
2010,06,16,14,52,13.90
2010,06,16,14,53,13.80
2010,06,16,14,54,13.70
2010,06,16,14,55,13.70
2010,06,16,14,56,13.70
2010,06,16,14,57,13.90
2010,06,16,14,58,13.90
2010,06,16,14,59,13.90
2010,06,16,15,00,13.80
2010,06,16,15,01,13.70
2010,06,16,15,02,13.70
2010,06,16,15,03,13.70
2010,06,16,15,04,13.70
2010,06,16,15,05,13.70
2010,06,16,15,06,13.70
2010,06,16,15,07,13.70
2010,06,16,15,08,13.70
2010,06,16,15,09,13.70
2010,06,16,15,10,13.70
2010,06,16,15,11,13.80
2010,06,16,15,12,13.90
2010,06,16,15,13,14.00
2010,06,16,15,14,14.20
2010,06,16,15,15,14.40
2010,06,16,15,16,14.50
2010,06,16,15,17,14.50
2010,06,16,15,18,14.50
2010,06,16,15,19,14.40
2010,06,16,15,20,14.40
2010,06,16,15,21,14.30
2010,06,16,15,22,14.20
2010,06,16,15,23,14.20
2010,06,16,15,24,14.10
2010,06,16,15,25,14.10
2010,06,16,15,26,14.20
2010,06,16,15,27,14.30
2010,06,16,15,28,14.50
2010,06,16,15,29,14.70
2010,06,16,15,30,14.90
2010,06,16,15,31,15.00
2010,06,16,15,32,15.00
2010,06,16,15,33,15.10
2010,06,16,15,34,15.10
2010,06,16,15,35,15.30
2010,06,16,15,36,15.30
2010,06,16,15,37,15.30
2010,06,16,15,38,15.30
2010,06,16,15,39,15.30
2010,06,16,15,40,15.10
2010,06,16,15,41,15.00
2010,06,16,15,42,14.80
2010,06,16,15,43,14.60
2010,06,16,15,44,14.50
2010,06,16,15,45,14.40
2010,06,16,15,46,14.30
2010,06,16,15,47,14.40
2010,06,16,15,48,14.40
2010,06,16,15,49,14.20
2010,06,16,15,50,14.00
2010,06,16,15,51,14.00
2010,06,16,15,52,14.00
2010,06,16,15,53,13.90
2010,06,16,15,54,13.80
2010,06,16,15,55,13.70
2010,06,16,15,56,13.70
2010,06,16,15,57,13.60
2010,06,16,15,58,13.60
2010,06,16,15,59,13.60
2010,06,16,16,00,13.70
2010,06,16,16,01,13.90
2010,06,16,16,02,14.00
2010,06,16,16,03,14.20
2010,06,16,16,04,14.30
2010,06,16,16,05,14.30
2010,06,16,16,06,14.40
2010,06,16,16,07,14.30
2010,06,16,16,08,14.20
2010,06,16,16,09,14.20
2010,06,16,16,10,14.20
2010,06,16,16,11,14.30
2010,06,16,16,12,14.30
2010,06,16,16,13,14.30
2010,06,16,16,14,14.10
2010,06,16,16,15,14.00
2010,06,16,16,16,13.90
2010,06,16,16,17,13.90
2010,06,16,16,18,14.00
2010,06,16,16,19,14.10
2010,06,16,16,20,14.20
2010,06,16,16,21,14.20
2010,06,16,16,22,14.30
2010,06,16,16,23,14.30
2010,06,16,16,24,14.10
2010,06,16,16,25,14.00
2010,06,16,16,26,13.90
2010,06,16,16,27,13.80
2010,06,16,16,28,13.80
2010,06,16,16,29,13.90
2010,06,16,16,30,14.00
2010,06,16,16,31,14.10
2010,06,16,16,32,14.30
2010,06,16,16,33,14.50
2010,06,16,16,34,14.50
2010,06,16,16,35,14.50
2010,06,16,16,36,14.50
2010,06,16,16,37,14.50
2010,06,16,16,38,14.60
2010,06,16,16,39,14.50
2010,06,16,16,40,14.40
2010,06,16,16,41,14.40
2010,06,16,16,42,14.40
2010,06,16,16,43,14.40
2010,06,16,16,44,14.50
2010,06,16,16,45,14.50
2010,06,16,16,46,14.60
2010,06,16,16,47,14.60
2010,06,16,16,48,14.60
2010,06,16,16,49,14.50
2010,06,16,16,50,14.50
2010,06,16,16,51,14.50
2010,06,16,16,52,14.50
2010,06,16,16,53,14.50
2010,06,16,16,54,14.40
2010,06,16,16,55,14.50
2010,06,16,16,56,14.50
2010,06,16,16,57,14.40
2010,06,16,16,58,14.50
2010,06,16,16,59,14.60
2010,06,16,17,00,14.70
2010,06,16,17,01,14.70
2010,06,16,17,02,14.70
2010,06,16,17,03,14.80
2010,06,16,17,04,14.90
2010,06,16,17,05,14.90
2010,06,16,17,06,14.90
2010,06,16,17,07,14.80
2010,06,16,17,08,14.80
2010,06,16,17,09,14.90
2010,06,16,17,10,14.80
2010,06,16,17,11,15.00
2010,06,16,17,12,15.00
2010,06,16,17,13,15.00
2010,06,16,17,14,15.00
2010,06,16,17,15,15.10
2010,06,16,17,16,15.10
2010,06,16,17,17,15.10
2010,06,16,17,18,15.10
2010,06,16,17,19,15.10
2010,06,16,17,20,15.10
2010,06,16,17,21,15.00
2010,06,16,17,22,15.00
2010,06,16,17,23,15.00
2010,06,16,17,24,15.00
2010,06,16,17,25,15.00
2010,06,16,17,26,15.00